COSMOS 2547

Last updated on Sun Apr 12 2026 00:02:39 GMT+0000 (Coordinated Universal Time)

1 46805U 20075A 26100.37071473 -.00000004 00000+0 00000+0 0 9991 2 46805 64.5978 194.7371 0007822 234.5648 125.3936 2.13100479 42469
UTC large
Height (km)
Speed (km/s)
/
Latitude / Longitude
Inclination (degrees)
Orbital Period (minutes)
Azimuth
Elevation
Range (km)
Doppler Factor

Next 0 passes for location: London (51.5072 / 0.1276)

Sorry there are no passes over London.